Simultaneous Nadir Overpasses (SNOs) Predictions

Prediction of SNOs between GOES-15 and TERRA Satellite Orbit:

Table of predicted SNOs for the next 14.0 days since TLE Epoch: 2/24/2024
Index Date Time (GOES-15) GOES-15 Lat,Lon TERRA Lat,Lon Distance(km) Time Diff (sec)
1 02/24/2024 06:00:27 0.01, 61.37 0.72, 58.06 375.81 80
2 02/26/2024 05:46:10 0.01, 61.35 -0.13, 62.16 90.86 80
3 02/26/2024 18:06:21 -0.01, 61.31 -0.87, 57.24 462.56 80
4 02/28/2024 17:46:44 -0.01, 61.30 0.00, 61.33 3.48 80
5 03/01/2024 17:29:46 -0.01, 61.30 0.84, 65.43 468.86 80
6 03/02/2024 05:49:48 0.01, 61.33 0.19, 60.56 88.55 80
7 03/04/2024 05:35:30 0.01, 61.34 -0.67, 64.65 376.25 80
8 03/04/2024 17:55:39 -0.00, 61.30 -0.36, 59.75 176.91 80
9 03/06/2024 17:36:02 -0.01, 61.31 0.53, 63.84 286.98 80
10 03/07/2024 05:56:03 0.00, 61.36 0.50, 58.97 271.88 80
